Regional Weather Roundup
Issued by NWS Little Rock, AR

Home | Current Version | Previous Version | Graphics & Text | Print | Product List | Glossary On
Versions: 1 2 3 4 5 6 7 8 9 10 11 12 13 14 15 16 17 18 19 20 21 22 23 24 25 26 27 28 29 30 31 32 33 34 35 36 37 38 39 40 41 42 43 44 45 46 47 48 49 50
000
ASUS44 KLZK 171205
RWRLZK

WEATHER ROUNDUP FOR ARKANSAS
NATIONAL WEATHER SERVICE LITTLE ROCK AR
700 AM CDT WED SEP 17 2014

NOTE: "FAIR" INDICATES FEW OR NO CLOUDS BELOW 12,000 FEET WITH NO
SIGNIFICANT WEATHER AND/OR OBSTRUCTIONS TO VISIBILITY.

ARZ001-003-010-029-171300-
NORTHWEST ARKANSAS

CITY           SKY/WX    TMP DP  RH WIND       PRES   REMARKS
FAYETTEVILLE   CLOUDY    67  67 100 S7        29.99F
6HR MIN TEMP:  62; 6HR MAX TEMP:  68;

FORT SMITH     CLOUDY    70  67  90 E8        29.97F FOG
6HR MIN TEMP:  70; 6HR MAX TEMP:  71;

HARRISON       CLOUDY    66  66 100 SE6       29.99S FOG
6HR MIN TEMP:  64; 6HR MAX TEMP:  66;

BENTONVILLE    CLOUDY    66  64  94 S7        29.99S
6HR MIN TEMP:  64; 6HR MAX TEMP:  66;

ROGERS         CLOUDY    67  65  93 S7        29.99S FOG
6HR MIN TEMP:  66; 6HR MAX TEMP:  67;

SILOAM SPGS    CLOUDY    66  63  88 S9        29.99F
6HR MIN TEMP:  64; 6HR MAX TEMP:  66;

HIGHFILL       CLOUDY    67  67 100 S12       29.98S FOG
6HR MIN TEMP:  64; 6HR MAX TEMP:  67;

$$

ARZ004-005-016-171300-
NORTH CENTRAL ARKANSAS

CITY           SKY/WX    TMP DP  RH WIND       PRES   REMARKS
BATESVILLE     CLOUDY    63  61  94 CALM      30.02S
6HR MIN TEMP:  61; 6HR MAX TEMP:  63;

FLIPPIN        CLOUDY    64  59  82 CALM      29.99S
6HR MIN TEMP:  64; 6HR MAX TEMP:  64;

MTN HOME       CLOUDY    63  61  93 S6        29.99F FOG
6HR MIN TEMP:  63; 6HR MAX TEMP:  64;

$$

ARZ040-041-171300-
WEST CENTRAL ARKANSAS

CITY           SKY/WX    TMP DP  RH WIND       PRES   REMARKS
MENA             N/A     70  70 100 CALM      30.01S
MOUNT IDA      MOCLDY    64  63  96 CALM      29.99S FOG
6HR MIN TEMP:  64; 6HR MAX TEMP:  69;

$$

ARZ009-017-025-026-028-171300-
NORTHEAST ARKANSAS

CITY           SKY/WX    TMP DP  RH WIND       PRES   REMARKS
CORNING          N/A     59  55  88 E5        30.03S
JONESBORO      CLOUDY    61  57  87 E3        30.02S
6HR MIN TEMP:  61; 6HR MAX TEMP:  65;

NEWPORT        CLOUDY    62  61  97 CALM      30.03S
6HR MIN TEMP:  60; 6HR MAX TEMP:  64;

WALNUT RIDGE   CLOUDY    61  55  82 NE5       30.01F
6HR MIN TEMP:  61; 6HR MAX TEMP:  64;

BLYTHEVILLE    CLOUDY    59  56  89 E7        30.03F
6HR MIN TEMP:  58; 6HR MAX TEMP:  61;

$$

ARZ022-023-033-042-044-171300-
CENTRAL ARKANSAS

CITY           SKY/WX    TMP DP  RH WIND       PRES   REMARKS
LITTLE ROCK    MOCLDY    63  59  87 NE5       30.02R
6HR MIN TEMP:  63; 6HR MAX TEMP:  66;

N LITTLE ROCK    N/A     63  61  94 E6        30.02R
6HR MIN TEMP:  61; 6HR MAX TEMP:  64;

JACKSONVILLE   CLOUDY    63  60  91 E3        30.01S
6HR MIN TEMP:  61; 6HR MAX TEMP:  64;

SEARCY         CLOUDY    62  60  93 NE3       30.03S
6HR MIN TEMP:  59; 6HR MAX TEMP:  63;

HOT SPRINGS    CLEAR     64  61  90 CALM      30.01S
6HR MIN TEMP:  64; 6HR MAX TEMP:  69;

RUSSELLVILLE     N/A    N/A N/A N/A MISG      30.01S
CLINTON        CLOUDY    63  63 100 CALM      30.02F FOG
$$

ARZ036-171300-
EAST ARKANSAS

CITY           SKY/WX    TMP DP  RH WIND       PRES   REMARKS
WEST MEMPHIS   CLEAR     60  60 100 CALM      30.01S
6HR MIN TEMP:  60; 6HR MAX TEMP:  64;

$$

ARZ050-053-066-070-073-171300-
SOUTHWEST ARKANSAS

CITY           SKY/WX    TMP DP  RH WIND       PRES   REMARKS
ARKADELPHIA    FAIR      65  64  96 NE5       30.00S
6HR MIN TEMP:  65; 6HR MAX TEMP:  70;

CAMDEN         FOG       66  64  94 NE3       29.99S VSB 1/4
TEXARKANA      FOG       69  69 100 E3        29.98S VSB 1/4
6HR MIN TEMP:  69; 6HR MAX TEMP:  73;

EL DORADO      FOG       67  67 100 CALM      29.99S VSB 1/4
6HR MIN TEMP:  67; 6HR MAX TEMP:  70;

DE QUEEN       FOG       66  66 100 CALM      29.98R VSB 1/4
6HR MIN TEMP:  67; 6HR MAX TEMP:  71;

$$

ARZ056-057-069-171300-
SOUTHEAST ARKANSAS

CITY           SKY/WX    TMP DP  RH WIND       PRES   REMARKS
PINE BLUFF     CLEAR     63  61  93 NE5       30.00S
6HR MIN TEMP:  63; 6HR MAX TEMP:  68;

STUTTGART      CLEAR     63  57  82 NE6       30.01S
6HR MIN TEMP:  61; 6HR MAX TEMP:  64;

MONTICELLO     CLOUDY    68  66  93 NE5       29.99S FOG
6HR MIN TEMP:  67; 6HR MAX TEMP:  72;


$$





USA.gov is the U.S. government's official web portal to all federal, state and local government web resources and services.